Home > Weather > Foochow > Past weeks

Flag for China Weather for the Past 2 Weeks in Foochow, Fujian, China

Now
66 °F

Clear.


Feels Like: 66 °F
Forecast: 51 / 76 °F
Wind: 3 mph from North

Location: Fuzhou Airport

Current Time: Apr 30, 2016 at 12:25:34 AM

Latest Report: Apr 30, 2016 at 12:00 AM


Visibility: 4 mi

Pressure: 30.01 "Hg

Humidity: 73%

Dew Point: 57 °F

Location of FoochowLocation

Historic Weather in Foochow — Graph

°F

Foochow Temperature Yesterday

Maximum temperature yesterday: 75 °F (at 11:00 AM)
Minimum temperature yesterday: 64 °F (at 12:00 AM)
Average temperature yesterday: 69 °F

High & Low Weather Summary for the Past Weeks

 TemperatureHumidityPressure
High82 °F (Apr 21, 11:00 AM)100% (Apr 15, 5:00 PM)30.24 "Hg (Apr 15, 5:00 PM)
Low55 °F (Apr 19, 3:00 AM)44% (Apr 29, 1:00 PM)29.68 "Hg (Apr 27, 2:00 PM)
Average66 °F86%29.92 "Hg
* Reported Apr 14 11:00 PM — Apr 29 11:00 PM, Foochow, Weather by CustomWeather, © 2016

Note: Actual official high and low records may vary slightly from our data, if they occured in-between our weather recording intervals... More about our weather records

Advertising

Foochow Weather History for the Previous 24 Hours

Scroll right to see more
 ConditionsComfort  
Time TempWeatherWind HumidityBarometerVisibility
11:00 PM
Fri, Apr 29
66 °FHaze.6 mph73%30.01 "Hg3 mi
10:00 PM66 °FHaze.3 mph73%30.01 "Hg3 mi
9:00 PM66 °FClear.3 mph73%30.01 "Hg4 mi
8:00 PM66 °FClear.6 mph73%30.01 "Hg4 mi
7:00 PM66 °FClear.6 mph68%30.01 "Hg4 mi
6:00 PM68 °FClear.8 mph64%30.01 "Hg4 mi
5:00 PM70 °FClear.10 mph57%29.98 "Hg4 mi
4:00 PM72 °FClear.13 mph53%29.98 "Hg4 mi
3:00 PM73 °FClear.13 mph50%30.01 "Hg5 mi
2:00 PM75 °FClear.15 mph50%30.01 "Hg5 mi
1:00 PM75 °FClear.15 mph44%30.04 "Hg6 mi
12:00 PM73 °FClear.10 mph50%30.07 "Hg6 mi
11:00 AM75 °FClear.10 mph50%30.07 "Hg6 mi
10:00 AM73 °FClear.13 mph53%30.07 "Hg6 mi
9:00 AM72 °FClear.10 mph61%30.07 "Hg6 mi
8:00 AM70 °FClear.8 mph64%30.04 "Hg5 mi
7:00 AM66 °FClear.3 mph73%30.04 "Hg4 mi
6:00 AM64 °FClear.3 mph78%30.01 "Hg4 mi
5:00 AM64 °FClear.3 mph78%30.01 "Hg4 mi
4:00 AM64 °FFog.3 mph78%29.98 "Hg3 mi
3:00 AM64 °FFog.3 mph78%29.98 "Hg3 mi
2:00 AM64 °FFog.3 mph78%29.98 "Hg3 mi
1:00 AM64 °FFog.3 mph78%30.01 "Hg3 mi
12:00 AM64 °FPassing clouds.3 mph78%30.01 "Hg4 mi
Weather by CustomWeather, © 2016

See weather overviewHow to use our weather pages